Weather History for Langdon, ND

Change the Weather History Date:

Monday, November 19, 2012

  Actual Average (KDVL) Record (KDVL)
Temperature  
Mean Temperature 24 °F -  
Max Temperature 32 °F 31 °F 53 °F (1990)
Min Temperature 15 °F 18 °F -4 °F (1950)
Degree Days  
Heating Degree Days 42    
Moisture  
Dew Point 26 °F    
Average Humidity 98    
Maximum Humidity 100    
Minimum Humidity 87    
Precipitation  
Precipitation 0.00 in - - ()
Sea Level Pressure  
Sea Level Pressure 30.00 in    
Wind  
Wind Speed 9 mph (West)    
Max Wind Speed 16 mph    
Max Gust Speed -    
Visibility 7 miles    
Events      
Averages and records for this station are not official NWS values.
T = Trace of Precipitation, MM = Missing Value Source: NWS Daily Summary

Daily Weather History Graph

Daily Weather History Graph

Search for Another Location

Airport:

Trip Planner

Search our weather history database for the weather conditions in past years. The results will help you decide how hot, cold, wet, or windy it might be!

Date:

Astronomy

Nov. 19, 2012 Rise Set
Actual Time 7:49 AM CST 4:48 PM CST
Civil Twilight 7:14 AM CST 5:23 PM CST
Nautical Twilight 6:35 AM CST 6:02 PM CST
Astronomical Twilight 5:58 AM CST 6:39 PM CST
Moon 12:41 PM CST (11/19) 11:31 PM CST (11/19)
Length of Visible Light 10h 09m
Length of Day
8h 59m
Waxing Crescent, 41% of the Moon is Illuminated
Nov 19
Waxing Crescent
Nov 20
First Quarter
Nov 28
Full
Dec 6
Last Quarter
Dec 13
New

Hourly Weather History & Observations

Time (CST) Temp. Windchill Dew Point Humidity Pressure Visibility Wind Dir Wind Speed Gust Speed Precip Events Conditions
12:15 AM 28.4 °F 21.2 °F 28.4 °F 100% 29.83 in 4.0 mi SSW 6.9 mph - N/A   Clear
12:35 AM 28.4 °F 21.2 °F 28.4 °F 100% 29.84 in 4.0 mi SW 6.9 mph - N/A   Clear
12:55 AM 26.6 °F 18.2 °F 26.6 °F 100% 29.84 in 5.0 mi SW 8.1 mph - N/A   Clear
1:15 AM 28.4 °F 20.4 °F 28.4 °F 100% 29.83 in 4.0 mi SW 8.1 mph - N/A   Clear
1:35 AM 28.4 °F 20.4 °F 28.4 °F 100% 29.83 in 3.0 mi SSW 8.1 mph - N/A   Clear
1:55 AM 28.4 °F 18.5 °F 28.4 °F 100% 29.83 in 3.0 mi SW 11.5 mph - N/A   Clear
2:15 AM 28.4 °F 20.4 °F 28.4 °F 100% 29.84 in 4.0 mi SW 8.1 mph - N/A   Clear
2:35 AM 28.4 °F 21.2 °F 28.4 °F 100% 29.85 in 3.0 mi WSW 6.9 mph - N/A   Clear
2:55 AM 28.4 °F 20.4 °F 28.4 °F 100% 29.85 in 3.0 mi WNW 8.1 mph - N/A   Partly Cloudy
3:15 AM 28.4 °F 20.4 °F 28.4 °F 100% 29.86 in 3.0 mi WNW 8.1 mph - N/A   Mostly Cloudy
3:35 AM 32.0 °F 24.8 °F 32.0 °F 100% 29.87 in 5.0 mi WNW 8.1 mph - N/A   Overcast
3:55 AM 32.0 °F 22.5 °F 32.0 °F 100% 29.87 in 6.0 mi WNW 12.7 mph - N/A   Scattered Clouds
4:15 AM 32.0 °F 22.1 °F 32.0 °F 100% 29.88 in 7.0 mi NW 13.8 mph - N/A   Clear
4:35 AM 32.0 °F 22.1 °F 32.0 °F 100% 29.87 in 7.0 mi NW 13.8 mph - N/A   Mostly Cloudy
4:55 AM 32.0 °F 23.6 °F 32.0 °F 100% 29.89 in 8.0 mi NW 10.4 mph - N/A   Partly Cloudy
5:15 AM 32.0 °F 24.2 °F 32.0 °F 100% 29.90 in 8.0 mi NW 9.2 mph - N/A   Scattered Clouds
5:35 AM 32.0 °F 23.6 °F 32.0 °F 100% 29.90 in 8.0 mi NW 10.4 mph - N/A   Partly Cloudy
5:55 AM 30.2 °F 21.3 °F 30.2 °F 100% 29.90 in 7.0 mi NW 10.4 mph - N/A   Clear
6:15 AM 30.2 °F 18.9 °F 30.2 °F 100% 29.91 in 8.0 mi NW 16.1 mph - N/A   Clear
6:35 AM 28.4 °F 18.0 °F 28.4 °F 100% 29.92 in 9.0 mi NW 12.7 mph - N/A   Clear
6:55 AM 28.4 °F 18.5 °F 28.4 °F 100% 29.92 in 9.0 mi NW 11.5 mph - N/A   Mostly Cloudy
7:35 AM 28.4 °F 18.5 °F 28.4 °F 100% 29.94 in 9.0 mi NW 11.5 mph - N/A   Clear
7:55 AM 26.6 °F 16.2 °F 26.6 °F 100% 29.95 in 7.0 mi NW 11.5 mph - N/A   Clear
8:15 AM 26.6 °F 20.0 °F 26.6 °F 100% 29.95 in 7.0 mi WNW 5.8 mph - N/A   Clear
8:35 AM 26.6 °F 16.2 °F 26.6 °F 100% 29.96 in 8.0 mi WNW 11.5 mph - N/A   Clear
8:55 AM 28.4 °F 17.5 °F 28.4 °F 100% 29.97 in 8.0 mi WNW 13.8 mph - N/A   Clear
9:15 AM 28.4 °F 17.5 °F 28.4 °F 100% 29.97 in 8.0 mi WNW 13.8 mph - N/A   Clear
9:35 AM 28.4 °F 16.6 °F 28.4 °F 100% 29.98 in 8.0 mi WNW 16.1 mph - N/A   Clear
9:55 AM 28.4 °F 17.0 °F 28.4 °F 100% 29.99 in 8.0 mi WNW 15.0 mph - N/A   Clear
10:15 AM 28.4 °F 16.6 °F 28.4 °F 100% 30.00 in 8.0 mi WNW 16.1 mph - N/A   Clear
10:35 AM 30.2 °F 19.3 °F 28.4 °F 93% 30.01 in 8.0 mi NW 15.0 mph - N/A   Clear
10:55 AM 30.2 °F 18.9 °F 28.4 °F 93% 30.02 in 8.0 mi NW 16.1 mph - N/A   Clear
11:15 AM 30.2 °F 19.3 °F 28.4 °F 93% 30.03 in 9.0 mi NW 15.0 mph - N/A   Clear
11:35 AM 32.0 °F 22.5 °F 28.4 °F 87% 30.03 in 9.0 mi NW 12.7 mph - N/A   Clear
11:55 AM 32.0 °F 23.6 °F 28.4 °F 87% 30.04 in 9.0 mi NW 10.4 mph - N/A   Clear
12:15 PM 32.0 °F 24.2 °F 30.2 °F 93% 30.04 in 9.0 mi NW 9.2 mph - N/A   Clear
12:35 PM 32.0 °F 24.2 °F 30.2 °F 93% 30.04 in 10.0 mi NW 9.2 mph - N/A   Clear
1:15 PM 32.0 °F 24.2 °F 30.2 °F 93% 30.06 in 10.0 mi NW 9.2 mph - N/A   Clear
1:35 PM 32.0 °F 26.4 °F 32.0 °F 100% 30.07 in 9.0 mi NW 5.8 mph - N/A   Clear
1:55 PM 32.0 °F 26.4 °F 30.2 °F 93% 30.07 in 10.0 mi NW 5.8 mph - N/A   Clear
2:15 PM 32.0 °F 24.2 °F 30.2 °F 93% 30.08 in 9.0 mi NW 9.2 mph - N/A   Clear
2:35 PM 32.0 °F 26.4 °F 28.4 °F 87% 30.08 in 10.0 mi NNW 5.8 mph - N/A   Clear
2:55 PM 32.0 °F 24.8 °F 28.4 °F 87% 30.08 in 10.0 mi NW 8.1 mph - N/A   Clear
3:15 PM 32.0 °F 25.6 °F 28.4 °F 87% 30.08 in 10.0 mi NNW 6.9 mph - N/A   Clear
3:35 PM 30.2 °F 26.7 °F 28.4 °F 93% 30.08 in 10.0 mi NW 3.5 mph - N/A   Clear
3:55 PM 30.2 °F 26.7 °F 28.4 °F 93% 30.09 in 10.0 mi NW 3.5 mph - N/A   Clear
4:15 PM 28.4 °F - 26.6 °F 93% 30.09 in 9.0 mi Calm Calm - N/A   Clear
4:35 PM 28.4 °F - 28.4 °F 100% 30.09 in 8.0 mi Calm Calm - N/A   Clear
4:55 PM 24.8 °F 19.1 °F 24.8 °F 100% 30.10 in 6.0 mi WNW 4.6 mph - N/A   Clear
5:15 PM 23.0 °F 17.0 °F 23.0 °F 100% 30.10 in 4.0 mi West 4.6 mph - N/A   Clear
5:35 PM 23.0 °F 15.8 °F 23.0 °F 100% 30.10 in 6.0 mi West 5.8 mph - N/A   Clear
5:55 PM 23.0 °F 18.4 °F 23.0 °F 100% 30.09 in 5.0 mi West 3.5 mph - N/A   Clear
6:15 PM 21.2 °F 16.4 °F 21.2 °F 100% 30.10 in 4.0 mi West 3.5 mph - N/A   Clear
6:35 PM 19.4 °F 10.4 °F 19.4 °F 100% 30.10 in 5.0 mi WSW 6.9 mph - N/A   Clear
6:55 PM 21.2 °F 13.6 °F 21.2 °F 100% 30.11 in 5.0 mi West 5.8 mph - N/A   Clear
7:15 PM 19.4 °F - 19.4 °F 100% 30.11 in 5.0 mi Calm Calm - N/A   Clear
7:35 PM 19.4 °F - 19.4 °F 100% 30.12 in 5.0 mi Calm Calm - N/A   Clear
7:55 PM 23.0 °F 17.0 °F 23.0 °F 100% 30.11 in 4.0 mi SW 4.6 mph - N/A   Clear
8:15 PM 19.4 °F 11.5 °F 19.4 °F 100% 30.11 in 4.0 mi South 5.8 mph - N/A   Clear
8:35 PM 17.6 °F 8.2 °F 17.6 °F 100% 30.10 in 5.0 mi South 6.9 mph - N/A   Clear
9:15 PM 17.6 °F 8.2 °F 17.6 °F 100% 30.10 in 5.0 mi South 6.9 mph - N/A   Clear
9:35 PM 15.8 °F 7.2 °F 15.8 °F 100% 30.10 in 5.0 mi South 5.8 mph - N/A   Clear
9:55 PM 15.8 °F 6.1 °F 15.8 °F 100% 30.10 in 7.0 mi SSE 6.9 mph - N/A   Clear
10:15 PM 17.6 °F 9.3 °F 17.6 °F 100% 30.10 in 6.0 mi South 5.8 mph - N/A   Clear
10:35 PM 17.6 °F 9.3 °F 17.6 °F 100% 30.11 in 7.0 mi South 5.8 mph - N/A   Clear
10:55 PM 15.8 °F 4.2 °F 15.8 °F 100% 30.09 in 5.0 mi South 9.2 mph - N/A   Clear
11:15 PM 17.6 °F 7.3 °F 17.6 °F 100% 30.08 in 6.0 mi South 8.1 mph - N/A   Clear
11:35 PM 19.4 °F 7.2 °F 19.4 °F 100% 30.08 in 8.0 mi South 11.5 mph - N/A   Clear
11:55 PM 19.4 °F 7.2 °F 19.4 °F 100% 30.08 in 10.0 mi South 11.5 mph - N/A   Clear